Wind_Speed
23 23 22 22 22 22 22 21 21 21 20 20 19 19 19 19 19 19 20 20 21 21 22 21 21 20 19 19 19 18 18 18 17 17 17 17 17 18 16 11 7 7 10 13 14 14 14 14 15 14 14 12 12 11 12 13 14 16 18 19 20 20 21 21 21 20 19 18 15
23 23 22 21 21 21 22 21 21 21 21 20 20 19 19 19 19 19 19 20 20 21 21 21 21 20 19 19 18 18 18 18 18 17 18 18 18 18 17 15 12 11 12 13 14 15 16 16 15 15 15 14 14 13 13 14 16 18 20 20 20 20 20 20 20 19 18 17 14
23 23 22 22 21 22 22 22 22 22 21 21 20 20 19 19 19 19 19 19 19 20 20 21 21 20 19 19 18 18 18 18 18 17 17 18 18 18 18 17 16 15 15 16 16 17 17 17 16 16 16 16 15 15 15 16 17 18 18 17 17 18 18 18 17 16 15 14 12
23 23 23 22 22 22 22 22 22 22 22 21 21 20 19 19 19 19 19 19 19 19 20 20 21 20 20 19 19 18 18 18 18 18 17 17 18 18 18 18 17 16 17 18 19 19 19 18 17 17 17 17 17 17 17 17 17 15 13 13 15 17 17 17 16 14 13 12 10
23 23 22 22 22 21 21 21 22 22 22 21 21 21 20 20 19 19 19 19 19 19 19 20 20 20 20 19 19 19 19 19 18 18 17 17 17 17 18 18 17 16 16 17 18 19 19 19 18 18 18 18 18 17 17 17 16 14 12 12 14 16 17 17 17 15 12 11 9
23 22 22 22 22 21 21 21 21 21 21 21 21 21 21 20 20 20 20 20 19 19 19 19 20 20 20 19 19 19 19 19 19 19 18 18 17 17 17 17 17 17 17 16 17 17 17 18 18 18 18 18 18 18 17 17 16 15 14 14 15 16 17 18 18 16 13 11 9
22 22 22 22 21 21 21 21 21 21 21 21 21 21 21 21 21 20 20 20 20 19 19 19 20 20 20 20 19 19 19 19 19 19 19 18 18 17 17 17 17 17 17 17 16 16 16 16 17 18 19 19 19 18 17 17 17 17 17 17 18 18 19 19 19 16 13 12 10
21 21 21 21 21 21 21 21 21 21 21 21 21 21 21 21 21 21 21 21 21 20 20 20 20 20 20 20 20 19 19 19 19 20 20 19 18 17 17 17 17 17 17 17 17 17 16 16 16 17 18 19 19 17 16 16 17 18 19 19 20 20 20 20 19 17 14 12 11
21 20 20 20 21 21 21 21 21 21 21 21 21 21 21 21 21 21 22 22 21 21 21 20 20 20 20 20 20 20 19 19 19 19 20 20 19 18 17 17 16 16 17 17 17 17 17 16 16 17 18 19 18 17 15 14 15 17 19 20 20 21 20 20 18 16 13 11 10
21 21 21 21 21 21 21 21 21 21 21 21 21 21 21 21 21 21 22 22 22 21 21 21 21 21 21 20 20 20 19 19 19 19 19 19 19 19 18 17 17 17 17 17 17 17 17 16 16 16 18 19 18 17 15 13 13 16 18 19 19 19 19 18 16 13 11 10 10
21 20 20 21 21 21 21 22 21 21 21 21 21 21 21 21 22 22 22 22 22 22 21 21 21 21 21 20 20 20 20 19 19 19 19 19 19 19 18 18 18 17 17 16 16 16 16 16 16 16 18 19 18 17 15 13 13 15 17 18 18 17 16 15 13 11 10 10 9
21 20 20 20 21 21 22 22 22 22 22 22 22 22 22 22 22 23 22 22 22 22 21 21 21 21 21 21 20 20 19 19 19 19 19 19 19 19 19 19 18 18 17 15 15 15 15 16 16 17 19 20 19 17 16 15 14 14 16 16 16 16 16 15 13 12 10 10 9
21 20 20 20 21 21 22 22 23 23 23 23 23 23 23 23 23 23 23 23 22 22 21 20 20 20 20 20 20 20 19 19 19 19 19 19 19 20 20 20 20 19 17 15 14 14 15 16 16 17 19 21 20 19 17 17 16 15 15 16 17 17 17 16 15 13 11 10 10
21 20 20 20 21 21 22 22 23 23 24 24 24 23 23 23 23 23 23 23 22 22 21 20 20 20 20 20 20 20 19 19 19 19 19 19 20 20 21 21 21 20 18 16 15 14 15 15 16 17 19 22 21 20 19 19 18 17 16 17 18 18 18 17 15 13 11 10 10
21 20 20 20 20 21 21 22 23 23 24 24 24 24 24 24 23 23 23 22 22 21 21 20 20 19 19 19 19 19 19 19 19 19 19 19 19 20 20 21 21 20 19 17 15 14 14 15 15 16 19 22 23 22 21 21 20 18 18 18 18 19 18 16 14 12 11 11 10
22 21 20 20 20 20 21 22 22 23 24 25 25 25 24 24 23 23 22 22 22 21 21 20 20 19 19 18 19 19 19 19 19 19 19 19 19 19 20 20 20 20 19 17 15 14 14 14 14 15 18 22 24 24 23 22 20 19 18 18 18 18 17 16 14 13 12 11 11
22 21 21 20 20 21 21 21 22 23 24 24 25 25 25 24 23 22 22 21 22 21 21 20 20 19 19 18 18 18 19 19 19 19 19 19 19 19 19 20 20 20 19 18 16 15 14 14 14 15 17 21 24 25 24 23 20 19 18 18 17 16 16 15 14 13 12 12 11
23 22 22 21 21 21 21 22 22 23 23 24 25 25 25 24 23 22 21 21 21 21 21 20 20 19 19 18 18 18 18 19 19 19 19 19 19 19 19 19 20 20 19 18 17 15 14 13 13 14 17 21 24 26 26 24 21 19 18 17 16 15 15 16 16 15 13 12 11
23 23 22 22 22 22 22 22 23 23 23 24 24 24 24 24 23 22 21 21 21 21 21 21 20 19 19 18 17 17 18 18 18 19 19 19 19 19 19 19 19 19 19 18 17 15 14 13 13 13 16 20 23 25 26 24 21 19 17 16 15 14 15 16 17 16 14 12 11
24 23 23 23 23 23 23 23 23 23 23 23 23 24 24 24 23 22 21 21 21 21 21 21 20 20 19 18 17 17 17 18 18 18 19 19 19 19 19 18 18 18 18 18 17 16 14 13 12 12 15 18 22 24 25 24 21 19 17 16 15 15 16 17 17 15 13 11 10
24 24 23 23 23 23 23 23 23 23 22 22 22 23 23 23 23 22 21 21 21 21 21 21 20 20 19 19 18 17 17 17 18 18 19 19 19 19 18 18 18 18 18 17 17 16 15 13 12 12 14 17 20 23 23 23 21 19 17 16 15 15 16 17 16 13 11 10 10
24 24 24 23 23 23 23 22 22 22 22 21 22 22 22 23 22 22 22 21 21 21 21 21 20 20 20 19 18 17 17 17 17 18 18 19 19 18 18 18 18 18 18 17 16 16 15 13 12 11 13 16 19 22 23 23 22 20 18 16 15 15 16 16 15 12 10 8 9
25 24 24 24 24 23 23 22 21 21 21 21 21 22 22 22 22 22 22 21 21 21 21 21 20 20 19 19 18 18 17 17 17 18 18 18 18 18 18 18 17 17 17 17 16 15 14 13 12 11 12 15 18 21 22 22 22 21 19 17 16 15 15 15 14 12 9 8 8
26 25 24 24 24 23 22 21 21 20 21 21 21 22 22 22 22 22 22 22 21 21 21 21 21 20 19 19 18 18 17 17 17 18 18 18 18 18 18 17 17 17 17 16 16 15 14 13 12 11 11 14 17 20 21 22 22 22 20 18 16 15 14 14 13 11 9 7 8
27 26 25 25 25 24 23 22 21 21 21 21 22 22 22 22 23 23 22 22 22 21 21 21 20 20 19 19 18 18 17 17 17 18 18 18 18 17 17 17 17 17 17 16 15 14 14 13 12 11 11 13 16 19 20 21 22 22 21 19 17 15 14 14 13 11 9 7 8
27 27 26 26 25 24 23 22 21 21 21 21 22 22 22 22 23 23 23 22 22 22 21 21 21 20 19 19 18 17 17 17 17 17 18 18 18 17 17 17 17 17 16 15 14 13 13 12 11 10 10 12 15 18 20 20 21 21 20 19 16 15 14 14 13 11 8 8 8
27 27 27 26 25 25 24 22 21 21 21 21 21 22 22 22 22 23 23 22 22 22 21 21 21 20 19 19 18 18 17 17 16 17 17 17 17 17 17 16 16 16 15 14 13 12 12 11 10 9 9 11 14 17 18 19 20 20 19 17 15 14 13 14 13 11 9 8 9
27 27 27 27 26 25 24 23 22 21 21 21 21 22 22 22 22 22 22 22 22 22 21 21 21 20 19 19 18 18 17 17 16 16 17 17 17 17 16 16 16 15 15 14 13 12 11 10 9 8 9 10 12 14 16 18 19 19 18 16 14 13 13 13 12 10 9 9 10
27 27 27 27 27 26 24 23 22 22 21 21 21 21 22 22 22 22 22 22 22 22 21 21 20 20 19 19 18 18 18 17 17 16 17 17 17 17 16 16 16 15 14 13 12 11 11 10 9 9 10 10 9 10 13 16 19 18 16 14 13 13 13 13 11 9 9 9 11
27 28 28 28 27 26 25 24 23 22 21 21 21 21 21 21 22 22 22 22 22 21 21 21 20 20 19 19 18 18 18 17 17 17 17 17 17 17 16 16 15 15 14 13 12 11 11 11 10 12 12 11 9 9 12 16 19 19 16 14 13 13 13 12 10 8 8 10 12
27 28 28 28 28 27 26 25 24 22 21 21 21 21 21 21 21 21 21 22 22 21 21 21 20 20 19 19 19 18 18 18 17 17 16 17 17 17 16 16 15 15 14 12 12 11 11 11 12 13 14 12 10 10 12 17 20 19 17 15 14 14 14 12 9 7 7 9 12
28 28 29 29 29 28 27 26 25 23 22 21 21 21 21 21 21 21 21 21 21 21 21 21 20 20 19 19 19 18 18 17 17 17 16 17 17 17 17 16 15 14 13 12 12 11 11 12 13 15 15 13 12 11 13 17 20 20 18 16 15 15 14 13 10 7 7 8 11
28 29 29 30 29 29 28 27 26 24 23 22 21 21 21 21 21 21 21 21 21 21 21 21 21 20 20 20 19 19 18 18 17 17 17 17 17 17 17 16 15 14 13 12 12 11 11 12 13 15 16 15 14 12 14 17 20 21 18 16 15 14 14 13 10 7 6 7 9
29 30 30 30 29 29 28 27 26 25 23 22 21 21 20 20 20 20 21 21 21 21 22 21 21 21 20 20 20 19 19 18 18 17 17 17 17 17 17 16 15 14 13 12 12 11 11 11 12 15 17 17 16 15 15 18 20 21 19 17 15 13 13 12 9 8 7 8 9
29 30 30 29 29 28 28 27 26 25 24 23 22 21 21 20 20 20 21 21 21 22 22 22 21 21 21 20 20 19 19 18 18 17 17 17 17 17 17 16 15 14 13 12 12 12 12 11 12 14 17 19 18 18 18 19 20 21 19 16 14 12 11 11 10 10 10 10 10
29 29 29 29 28 28 27 27 26 26 25 23 22 21 21 20 20 20 21 21 22 22 22 22 21 21 20 20 19 19 18 18 18 17 17 17 17 17 17 16 15 14 13 12 13 13 12 12 11 13 16 20 21 20 20 21 21 21 20 17 14 12 11 11 11 12 13 12 11
28 28 28 28 27 27 27 27 27 26 25 24 23 22 21 21 21 20 21 21 22 22 22 22 21 21 20 20 19 19 18 17 17 17 17 17 17 17 17 17 16 14 13 12 13 13 13 12 12 12 15 19 22 22 21 21 21 21 20 17 15 13 12 12 13 15 15 14 13
27 26 26 26 27 27 27 27 27 26 25 24 23 22 22 21 21 21 21 21 22 22 22 22 21 21 20 20 19 19 18 17 17 17 17 17 17 17 17 17 16 14 13 12 13 13 14 13 12 12 14 18 21 23 22 21 20 20 19 18 16 15 14 15 16 17 16 15 13
26 25 25 26 27 27 28 28 27 26 26 25 24 23 22 22 21 21 21 21 22 22 22 22 22 21 20 20 20 19 18 17 17 17 17 17 16 16 17 17 16 15 13 12 13 13 14 14 13 12 14 17 21 23 23 21 20 19 18 17 16 16 17 18 18 18 17 15 14
26 25 26 26 27 28 28 28 27 26 26 25 24 23 23 22 22 21 21 21 22 22 22 22 22 21 21 20 20 20 19 18 17 16 16 16 16 16 16 17 17 16 14 13 13 14 15 15 14 13 14 18 22 24 22 20 20 19 18 17 16 17 18 19 20 19 17 15 14
26 26 27 27 28 28 29 28 27 26 26 25 24 24 23 22 22 21 21 21 22 22 22 22 22 21 21 20 20 20 20 19 17 16 16 16 16 16 16 16 16 16 14 13 13 14 15 15 15 14 16 20 23 24 23 21 20 19 18 17 17 17 18 19 19 18 17 15 15
Wind_Direction
335 334 334 333 332 331 331 332 332 331 330 328 326 324 323 323 324 326 328 331 332 332 330 328 324 318 310 303 296 292 289 288 288 287 286 283 280 280 278 270 263 266 270 270 273 272 263 249 241 240 238 230 219 219 230 241 246 246 244 242 242 246 251 258 266 273 279 280 277
334 333 332 331 330 329 329 329 329 329 329 328 326 323 321 321 321 322 324 326 328 328 328 327 325 321 314 307 298 292 288 286 286 286 287 286 285 284 282 275 261 248 244 246 249 254 257 255 248 242 237 230 222 222 229 238 244 246 247 247 250 254 259 264 270 276 279 281 279
332 331 330 329 329 328 327 327 327 328 328 327 325 323 321 319 317 317 318 320 322 324 325 326 325 323 318 311 302 294 288 285 284 285 285 286 286 287 286 281 271 257 246 242 243 247 252 256 253 246 238 231 225 224 229 236 241 245 250 256 260 263 265 268 273 277 281 282 280
331 330 329 328 328 327 326 326 326 326 326 326 325 323 320 317 315 314 314 315 317 320 322 324 325 324 321 315 307 298 291 286 284 284 284 284 285 286 287 285 280 268 257 250 248 250 254 257 255 247 238 231 227 227 231 237 240 243 250 259 265 268 270 273 277 280 282 283 279
330 328 327 327 327 326 325 324 324 323 323 324 323 322 320 317 314 312 312 312 314 316 318 320 322 323 322 318 312 304 296 289 285 283 283 283 284 285 286 287 285 279 270 262 258 257 257 257 253 246 237 230 227 229 234 238 238 236 238 247 258 265 270 275 278 281 283 283 277
329 327 326 325 324 324 323 322 322 321 321 322 321 320 319 317 315 312 311 310 311 312 314 316 318 320 320 319 315 309 301 294 288 285 283 283 284 285 285 286 286 284 281 276 271 267 262 257 251 243 234 228 226 229 235 239 237 232 230 234 243 252 260 266 272 277 282 281 276
327 325 323 322 322 321 321 320 320 319 319 319 319 318 318 317 315 313 310 309 308 309 310 311 313 316 318 319 317 313 307 300 293 288 285 284 284 285 286 286 286 286 285 283 280 275 269 261 251 240 231 225 223 227 233 238 238 235 233 234 238 243 250 258 266 273 277 277 272
326 324 322 320 320 319 319 319 319 318 317 317 317 316 316 315 315 313 311 309 307 307 307 308 310 312 315 317 317 315 310 305 299 293 288 286 285 284 284 285 286 286 285 283 281 278 274 266 254 241 229 222 220 223 230 238 241 240 239 239 241 245 251 258 265 272 275 273 267
326 323 321 319 318 318 317 318 317 317 316 315 314 314 314 314 313 312 310 309 308 307 306 305 306 308 310 313 315 314 312 308 303 298 292 288 286 284 283 282 282 282 281 279 277 276 274 270 258 242 228 219 217 219 225 235 243 246 246 245 246 249 252 258 263 268 270 266 260
326 323 320 318 317 316 316 316 315 315 314 313 312 311 312 312 312 311 310 310 309 307 305 304 303 304 306 309 311 313 312 310 306 301 296 291 287 285 283 281 280 278 277 276 275 274 274 271 261 242 225 216 214 216 219 227 241 249 250 250 250 251 254 256 260 264 265 259 252
327 323 320 317 316 315 314 314 313 313 312 311 310 309 309 310 310 310 311 311 310 308 306 304 303 302 302 305 308 310 311 310 307 303 299 294 289 285 283 282 280 278 277 276 275 274 273 271 261 241 221 212 212 214 215 218 232 245 251 253 253 255 257 258 261 266 266 257 248
327 324 320 317 315 314 312 312 311 311 310 309 309 308 308 308 309 310 310 311 309 309 308 306 304 302 301 302 304 307 309 310 308 305 301 296 291 286 283 281 280 279 278 277 275 273 271 269 261 240 220 210 210 213 215 216 223 235 245 251 253 255 258 262 267 272 270 260 248
327 324 320 317 314 312 310 309 309 309 308 308 308 307 308 308 309 310 310 310 310 311 310 309 307 303 301 300 301 303 306 308 308 306 302 298 294 288 285 282 280 279 279 278 277 274 272 270 263 243 222 210 209 212 215 216 219 226 236 244 248 251 255 260 267 272 272 262 252
328 325 321 317 314 311 309 308 307 307 307 307 307 307 308 309 309 310 310 310 311 312 312 312 310 306 302 300 299 301 303 306 307 306 304 300 295 291 288 284 282 282 281 280 279 277 275 273 267 249 227 212 209 211 214 217 218 222 229 237 244 249 252 257 262 268 270 264 253
327 325 322 318 315 311 309 308 307 306 305 306 306 307 308 309 309 310 310 310 311 312 313 314 312 309 305 301 299 299 300 303 305 305 304 301 297 293 290 287 285 283 282 280 279 278 277 275 270 255 234 218 212 212 215 217 219 221 225 233 241 247 252 256 260 266 269 266 256
327 325 323 320 317 314 312 309 307 306 305 305 306 307 308 309 310 310 311 311 312 313 314 315 314 311 308 303 299 298 298 300 302 304 304 302 299 296 292 290 287 285 283 281 279 279 279 277 271 258 239 224 217 215 217 219 220 222 225 230 237 245 253 258 261 266 267 264 257
327 326 325 323 321 319 316 313 310 308 306 306 306 307 308 309 309 310 311 312 313 314 314 315 314 313 310 306 301 298 297 298 300 303 304 304 302 299 296 293 290 288 285 283 281 281 282 280 271 257 241 229 222 219 219 220 221 223 226 230 236 244 253 260 264 266 266 262 255
326 326 326 326 325 323 321 317 314 311 309 307 307 307 307 307 308 309 311 313 314 314 315 315 314 314 311 308 303 299 297 297 299 301 303 304 303 300 298 295 292 289 287 285 283 283 284 284 274 258 242 232 225 223 222 223 222 224 226 230 234 242 251 259 265 267 266 263 255
326 326 327 328 327 326 324 321 317 314 311 309 307 306 306 306 307 308 310 312 313 314 315 315 314 313 312 309 305 300 297 296 297 299 301 303 303 301 298 295 292 290 288 286 284 284 285 285 278 261 244 233 227 225 225 225 224 224 226 229 232 239 248 256 262 265 266 263 252
326 326 327 328 328 327 325 322 319 316 313 310 308 306 305 304 305 307 309 311 313 314 314 314 314 313 312 309 306 301 297 295 295 296 298 301 302 301 299 296 293 290 288 286 285 284 285 286 281 265 247 235 227 224 224 225 223 222 223 227 231 237 245 253 259 263 266 262 248
325 325 326 327 327 327 325 323 320 317 314 311 309 306 304 304 304 306 308 310 312 313 313 314 314 313 312 310 306 302 297 294 293 294 296 298 300 300 299 296 293 290 287 285 284 284 284 285 283 269 251 237 227 224 223 223 220 218 219 223 229 237 244 252 257 264 267 262 245
324 324 324 326 326 326 325 323 321 318 315 312 310 307 304 303 303 305 307 309 310 311 312 312 313 312 312 310 307 303 298 294 292 292 294 296 299 299 298 296 292 289 286 284 283 282 283 284 283 272 254 238 228 223 221 220 217 215 216 220 227 235 243 250 258 266 270 262 240
323 322 323 325 325 325 324 323 321 319 316 313 310 307 305 303 303 304 305 307 308 310 310 311 311 312 311 310 308 304 299 295 292 291 292 294 296 298 297 295 292 288 285 283 282 281 282 283 283 275 258 240 228 221 219 218 215 213 214 218 224 231 240 250 260 268 269 258 234
321 321 322 323 323 323 324 323 321 319 316 313 311 308 306 304 303 304 304 305 307 308 309 310 310 310 310 310 308 305 301 296 292 290 290 292 294 296 296 295 293 289 286 283 281 280 281 281 282 275 259 240 227 220 217 216 214 212 213 216 221 228 237 249 260 266 266 251 229
320 320 320 321 321 322 322 322 320 318 316 314 311 309 307 305 304 304 304 305 305 306 308 309 309 310 310 309 308 305 301 296 292 290 289 290 292 294 295 295 293 290 286 283 281 279 279 279 279 273 257 237 224 217 214 214 213 212 213 215 219 225 235 246 255 260 259 246 227
319 319 319 319 320 320 321 320 319 317 315 313 311 310 308 306 305 304 304 305 305 306 307 308 309 309 310 309 308 305 301 296 292 290 289 289 291 292 294 294 292 289 286 283 280 278 277 276 274 265 248 229 218 213 211 213 212 211 212 214 217 224 234 243 250 254 253 241 226
317 317 317 317 318 319 319 319 318 316 314 312 311 310 309 307 306 306 306 306 306 306 307 307 308 309 309 309 308 305 302 297 292 289 287 288 289 291 292 293 292 289 286 283 279 276 273 271 265 251 229 215 211 210 211 212 211 209 209 212 217 225 234 242 246 250 250 241 224
316 316 316 316 317 318 318 318 317 315 313 311 310 310 309 308 308 307 307 306 306 306 306 306 307 307 308 308 307 305 302 299 294 290 287 286 287 289 290 291 290 288 285 281 277 272 268 261 249 224 201 195 202 210 214 213 208 205 205 211 218 227 234 240 244 249 250 239 219
315 315 315 316 317 318 319 319 318 315 312 310 309 308 308 308 308 308 307 307 307 306 306 306 306 307 308 307 307 305 303 300 295 291 288 285 285 286 287 288 288 286 283 278 273 268 261 250 226 196 179 179 194 212 218 213 205 200 203 212 222 230 235 239 243 248 247 233 213
315 315 315 316 317 319 320 320 318 315 311 308 307 307 307 307 308 308 308 307 307 307 306 306 306 306 306 306 305 304 302 300 296 293 289 286 285 285 284 285 285 283 281 275 270 264 256 242 213 186 174 176 191 214 220 211 201 197 202 213 223 231 235 239 241 244 239 224 208
315 315 316 317 318 319 320 320 318 315 311 308 306 306 306 306 307 308 308 308 308 307 306 306 305 305 304 304 303 302 301 299 296 293 289 286 284 283 283 283 283 282 279 274 268 262 253 239 212 190 178 177 188 210 218 209 198 195 200 212 221 228 233 237 235 232 227 217 206
316 316 316 317 318 318 319 319 318 315 312 309 307 305 305 305 305 307 307 308 307 306 306 305 304 303 302 302 301 300 299 297 295 292 289 285 283 282 282 282 282 281 278 273 267 263 256 241 217 198 186 181 185 202 213 208 198 194 199 208 216 224 230 234 229 222 217 214 208
317 317 317 317 317 318 318 318 317 315 313 310 307 305 304 303 304 305 306 306 306 306 306 306 305 303 302 301 300 299 298 296 294 292 288 284 282 281 281 281 280 280 277 271 265 263 259 248 226 207 193 185 185 195 206 206 199 197 199 205 212 220 227 231 227 223 221 220 213
317 317 317 317 317 317 317 317 316 315 313 311 308 305 303 302 302 303 304 305 305 306 306 305 305 303 302 301 300 299 298 296 294 291 288 285 282 280 279 279 278 277 274 269 262 260 259 254 236 216 201 192 189 193 200 204 202 201 202 204 209 216 223 229 231 236 240 236 223
317 317 317 317 317 317 316 316 315 314 313 311 308 305 302 301 302 302 304 304 305 305 305 305 304 302 301 300 299 298 296 295 293 291 289 286 282 280 278 277 276 274 271 266 259 255 255 255 245 225 208 197 192 193 197 201 205 205 204 204 207 212 218 224 232 240 243 242 231
318 318 318 317 317 317 316 316 315 314 313 311 308 305 302 301 301 302 303 303 304 304 304 303 303 301 300 299 297 296 294 293 292 290 288 285 282 280 277 275 273 271 268 263 256 251 249 252 249 233 215 202 196 194 196 199 204 207 207 206 206 209 213 219 227 233 237 238 231
319 319 319 318 318 318 317 316 315 314 313 310 308 305 303 301 301 301 302 303 303 303 303 303 302 302 301 299 297 295 293 292 291 289 287 284 281 279 277 275 272 269 266 260 255 249 246 246 247 239 221 207 199 196 196 198 203 208 209 209 209 209 212 217 224 230 234 236 231
321 321 320 320 320 319 318 317 316 314 312 310 307 305 303 302 301 301 301 303 303 303 303 303 303 303 302 300 298 296 293 291 290 289 287 284 281 279 277 275 273 269 264 258 253 247 244 242 244 239 225 211 202 197 195 197 202 208 211 212 213 213 215 220 224 228 232 234 230
324 323 323 322 321 320 319 318 316 314 312 309 307 305 303 301 300 300 301 302 303 303 303 303 303 303 303 301 299 296 294 291 289 288 286 284 282 279 277 275 273 269 264 256 250 245 242 240 240 236 224 211 201 196 194 196 202 207 210 213 216 218 221 223 225 228 231 233 229
326 326 325 323 322 321 320 318 316 313 311 309 306 304 302 301 300 300 300 301 302 303 303 303 303 303 303 302 300 297 294 292 289 287 286 283 281 279 277 274 272 269 264 256 248 243 239 238 238 233 221 207 198 193 193 197 202 206 209 213 217 221 224 225 227 229 231 233 227
328 327 326 324 323 321 320 318 315 313 310 308 306 304 302 300 299 299 299 300 300 301 302 303 303 303 303 302 300 298 295 293 290 288 285 283 280 278 276 273 271 269 264 256 247 240 237 235 236 231 217 202 194 191 192 198 203 207 211 215 218 221 224 226 226 227 229 231 222
Height
1468 1467 1466 1465 1464 1463 1463 1462 1461 1460 1459 1458 1457 1456 1456 1455 1454 1453 1452 1452 1451 1450 1449 1448 1448 1447 1447 1447 1446 1446 1445 1445 1445 1444 1444 1444 1444 1444 1444 1445 1444 1445 1446 1446 1445 1445 1445 1445 1445 1445 1445 1446 1446 1446 1447 1447 1447 1448 1448 1448 1448 1448 1448 1447 1447 1447 1447 1447 1447
1467 1466 1466 1465 1464 1463 1462 1461 1460 1460 1459 1458 1457 1456 1455 1454 1453 1453 1452 1451 1450 1449 1449 1448 1447 1446 1446 1445 1445 1445 1444 1444 1444 1444 1443 1443 1443 1443 1443 1444 1444 1444 1443 1444 1444 1444 1444 1444 1444 1444 1444 1445 1445 1445 1446 1446 1447 1446 1446 1446 1446 1447 1446 1446 1446 1446 1446 1446 1446
1467 1466 1465 1464 1463 1462 1461 1460 1459 1459 1458 1457 1456 1455 1454 1454 1453 1452 1451 1450 1449 1449 1448 1447 1446 1446 1445 1444 1444 1444 1444 1443 1443 1442 1442 1442 1442 1442 1442 1442 1442 1442 1442 1442 1442 1442 1442 1442 1443 1443 1443 1444 1444 1444 1444 1445 1445 1445 1445 1445 1445 1445 1445 1445 1445 1445 1445 1445 1445
1466 1465 1464 1463 1462 1461 1460 1459 1459 1458 1457 1456 1456 1455 1454 1453 1452 1451 1450 1449 1449 1448 1447 1446 1445 1445 1444 1444 1443 1443 1443 1442 1442 1441 1441 1441 1440 1440 1440 1440 1440 1441 1441 1441 1441 1441 1441 1441 1441 1441 1442 1442 1443 1443 1443 1444 1444 1444 1445 1445 1444 1444 1444 1444 1444 1444 1444 1444 1444
1465 1464 1463 1462 1461 1461 1460 1459 1458 1457 1456 1456 1455 1454 1453 1452 1451 1450 1449 1449 1448 1447 1446 1446 1445 1444 1444 1443 1443 1442 1442 1442 1441 1440 1440 1440 1439 1439 1439 1439 1439 1439 1439 1440 1440 1440 1440 1440 1440 1440 1440 1441 1441 1442 1442 1443 1443 1444 1444 1444 1444 1444 1443 1443 1443 1443 1443 1443 1443
1464 1464 1463 1462 1461 1460 1459 1458 1457 1456 1456 1455 1454 1453 1452 1451 1450 1449 1448 1448 1447 1446 1446 1445 1444 1444 1443 1442 1442 1441 1441 1441 1440 1440 1439 1439 1438 1438 1438 1438 1438 1438 1438 1438 1438 1438 1438 1438 1438 1438 1439 1439 1440 1440 1441 1442 1442 1442 1443 1443 1443 1443 1443 1442 1442 1442 1442 1442 1442
1464 1463 1462 1461 1460 1459 1458 1457 1456 1456 1455 1454 1453 1452 1451 1450 1449 1448 1447 1447 1446 1445 1445 1444 1444 1443 1442 1441 1441 1440 1440 1439 1439 1439 1438 1438 1437 1437 1437 1436 1436 1436 1436 1436 1436 1436 1437 1437 1437 1437 1437 1438 1439 1439 1440 1440 1441 1441 1441 1441 1441 1441 1441 1441 1441 1441 1441 1441 1441
1463 1462 1461 1460 1459 1458 1457 1456 1455 1455 1454 1453 1452 1451 1450 1449 1448 1447 1446 1446 1445 1444 1444 1443 1442 1442 1441 1440 1440 1439 1439 1438 1438 1437 1437 1437 1436 1436 1436 1435 1435 1435 1435 1435 1435 1435 1435 1435 1435 1436 1436 1437 1438 1438 1439 1439 1440 1440 1440 1440 1440 1440 1440 1440 1440 1440 1440 1440 1440
1463 1461 1460 1459 1458 1457 1456 1455 1454 1454 1453 1452 1451 1450 1449 1449 1448 1446 1445 1444 1444 1443 1443 1442 1441 1441 1440 1439 1439 1438 1438 1437 1436 1436 1436 1435 1435 1435 1434 1434 1434 1434 1434 1434 1434 1434 1434 1434 1434 1434 1435 1436 1436 1437 1438 1438 1439 1439 1439 1439 1439 1439 1439 1439 1439 1439 1439 1439 1439
1461 1460 1459 1458 1457 1456 1455 1454 1454 1453 1452 1451 1450 1449 1449 1448 1447 1446 1445 1444 1443 1442 1441 1441 1440 1440 1439 1439 1438 1437 1436 1436 1435 1434 1434 1434 1434 1434 1433 1433 1433 1433 1433 1432 1432 1432 1432 1432 1433 1433 1434 1434 1435 1435 1436 1437 1438 1438 1438 1438 1438 1438 1438 1438 1438 1438 1438 1438 1438
1460 1459 1458 1457 1456 1455 1454 1453 1452 1452 1451 1450 1449 1448 1448 1447 1446 1445 1444 1443 1442 1441 1440 1440 1439 1439 1438 1437 1437 1436 1435 1434 1434 1433 1433 1433 1433 1432 1432 1432 1431 1431 1431 1431 1431 1431 1431 1431 1431 1432 1432 1433 1434 1434 1435 1435 1436 1437 1436 1436 1436 1436 1436 1437 1437 1437 1437 1437 1437
1459 1459 1457 1456 1455 1454 1453 1452 1451 1450 1449 1449 1448 1447 1446 1445 1444 1444 1443 1442 1441 1440 1439 1439 1438 1437 1436 1436 1435 1434 1434 1433 1433 1432 1432 1431 1431 1431 1431 1430 1430 1430 1430 1430 1430 1430 1430 1430 1430 1430 1431 1432 1433 1433 1434 1434 1435 1435 1435 1435 1435 1435 1435 1435 1436 1436 1436 1436 1436
1459 1458 1456 1455 1454 1453 1452 1451 1450 1449 1448 1447 1446 1446 1445 1444 1443 1442 1441 1440 1439 1439 1438 1437 1437 1436 1435 1434 1434 1433 1433 1432 1431 1431 1430 1430 1430 1429 1429 1429 1429 1429 1429 1429 1429 1429 1429 1429 1429 1429 1429 1430 1431 1432 1432 1433 1434 1434 1434 1434 1434 1434 1435 1435 1435 1435 1435 1435 1435
1458 1457 1455 1454 1453 1452 1451 1450 1449 1448 1447 1446 1445 1444 1443 1443 1442 1441 1440 1439 1438 1437 1437 1436 1435 1434 1434 1433 1433 1432 1431 1431 1430 1429 1429 1429 1429 1428 1428 1428 1428 1427 1427 1428 1428 1428 1427 1427 1427 1428 1428 1429 1430 1430 1431 1431 1432 1433 1433 1434 1433 1434 1434 1434 1434 1434 1434 1434 1434
1457 1455 1454 1453 1452 1451 1450 1449 1448 1446 1445 1444 1444 1443 1442 1441 1440 1439 1439 1438 1437 1436 1435 1434 1434 1433 1433 1432 1431 1431 1430 1429 1429 1428 1428 1427 1427 1427 1426 1426 1426 1426 1426 1426 1426 1426 1426 1426 1426 1426 1427 1428 1429 1429 1429 1430 1430 1431 1432 1432 1432 1432 1433 1433 1433 1434 1434 1434 1434
1455 1454 1453 1452 1451 1450 1449 1448 1446 1445 1444 1443 1442 1441 1440 1440 1439 1438 1437 1436 1435 1435 1434 1433 1432 1432 1431 1431 1430 1429 1429 1428 1428 1427 1427 1426 1426 1425 1425 1425 1424 1424 1424 1424 1425 1425 1425 1424 1424 1425 1425 1426 1427 1428 1428 1429 1429 1430 1431 1431 1431 1431 1432 1432 1432 1433 1433 1433 1433
1454 1453 1452 1451 1450 1449 1448 1447 1445 1444 1443 1442 1441 1440 1439 1438 1438 1437 1436 1435 1434 1433 1433 1432 1431 1430 1429 1429 1429 1428 1427 1427 1426 1426 1425 1425 1424 1424 1424 1424 1423 1423 1423 1423 1423 1424 1424 1423 1423 1424 1424 1425 1425 1426 1427 1427 1428 1429 1429 1430 1430 1431 1431 1431 1431 1432 1432 1432 1432
1453 1452 1451 1450 1449 1448 1446 1445 1444 1443 1442 1441 1440 1439 1438 1437 1436 1435 1435 1434 1433 1432 1431 1431 1430 1429 1428 1428 1427 1427 1426 1425 1425 1424 1424 1424 1423 1423 1423 1422 1422 1422 1422 1422 1422 1422 1422 1422 1422 1422 1423 1423 1424 1425 1425 1426 1427 1428 1429 1429 1429 1430 1430 1430 1430 1431 1431 1431 1431
1452 1450 1449 1448 1447 1446 1445 1444 1443 1442 1441 1440 1439 1438 1437 1436 1435 1434 1434 1433 1432 1431 1430 1429 1429 1428 1427 1426 1426 1425 1425 1424 1424 1423 1423 1423 1422 1422 1421 1421 1421 1420 1420 1420 1420 1421 1421 1421 1421 1421 1421 1422 1422 1423 1424 1425 1426 1427 1428 1428 1429 1429 1429 1429 1429 1429 1430 1430 1430
1450 1449 1448 1447 1446 1445 1444 1443 1442 1441 1440 1439 1438 1437 1435 1434 1434 1433 1432 1431 1431 1430 1429 1428 1427 1427 1426 1425 1424 1424 1423 1423 1423 1422 1422 1421 1421 1420 1420 1420 1419 1419 1419 1419 1419 1419 1419 1419 1419 1419 1420 1420 1421 1422 1423 1424 1425 1426 1427 1427 1428 1428 1428 1428 1429 1429 1429 1429 1430
1449 1448 1447 1446 1445 1444 1443 1442 1440 1439 1439 1437 1436 1435 1434 1433 1433 1432 1431 1430 1429 1429 1428 1427 1426 1425 1424 1424 1423 1423 1422 1422 1421 1421 1420 1420 1419 1419 1419 1419 1418 1418 1418 1418 1418 1418 1418 1418 1418 1418 1419 1419 1419 1421 1422 1423 1424 1425 1426 1426 1427 1427 1427 1427 1428 1428 1428 1429 1429
1448 1447 1446 1445 1444 1443 1442 1440 1439 1438 1437 1436 1435 1434 1433 1432 1431 1430 1430 1429 1428 1427 1426 1426 1425 1424 1423 1423 1422 1421 1421 1420 1420 1419 1419 1419 1418 1418 1418 1417 1417 1417 1417 1417 1417 1417 1417 1417 1417 1417 1417 1418 1419 1419 1421 1422 1423 1424 1425 1425 1426 1426 1426 1427 1427 1427 1428 1428 1428
1447 1445 1444 1443 1442 1441 1440 1439 1438 1437 1436 1435 1434 1433 1432 1431 1430 1429 1429 1428 1427 1426 1425 1424 1424 1423 1422 1421 1420 1420 1419 1419 1418 1418 1418 1417 1417 1417 1416 1416 1416 1416 1415 1415 1415 1415 1416 1416 1416 1416 1416 1417 1417 1418 1419 1421 1422 1423 1424 1424 1425 1425 1426 1426 1426 1427 1427 1427 1428
1445 1444 1443 1442 1441 1440 1439 1438 1437 1436 1434 1434 1432 1431 1430 1429 1429 1428 1427 1426 1425 1425 1424 1423 1422 1421 1421 1420 1419 1419 1418 1417 1417 1416 1416 1416 1416 1415 1415 1415 1415 1414 1414 1414 1414 1414 1414 1414 1415 1415 1415 1415 1416 1417 1419 1420 1421 1422 1423 1424 1424 1424 1425 1425 1425 1426 1426 1427 1427
1444 1443 1442 1440 1439 1439 1438 1436 1435 1434 1433 1432 1431 1430 1429 1428 1427 1426 1425 1424 1424 1423 1422 1422 1421 1420 1419 1419 1418 1417 1417 1416 1415 1415 1415 1414 1414 1414 1414 1414 1414 1414 1413 1413 1414 1414 1414 1414 1414 1414 1414 1414 1415 1416 1418 1419 1420 1421 1422 1423 1423 1424 1424 1424 1425 1425 1426 1426 1427
1443 1441 1440 1439 1438 1437 1436 1435 1434 1433 1432 1431 1429 1429 1428 1427 1426 1425 1424 1423 1422 1422 1421 1420 1419 1419 1418 1417 1417 1416 1415 1415 1414 1414 1413 1413 1413 1413 1413 1413 1412 1412 1412 1412 1413 1413 1413 1413 1413 1413 1413 1414 1414 1415 1417 1418 1419 1420 1421 1422 1422 1423 1424 1424 1424 1425 1426 1426 1426
1441 1439 1438 1437 1436 1435 1434 1434 1432 1431 1430 1429 1428 1427 1426 1425 1424 1423 1422 1422 1421 1420 1419 1419 1418 1417 1416 1416 1415 1414 1414 1414 1413 1413 1412 1412 1412 1411 1411 1411 1411 1411 1411 1411 1412 1412 1412 1412 1412 1412 1412 1413 1414 1415 1416 1417 1418 1419 1420 1421 1422 1422 1423 1423 1424 1425 1425 1425 1426
1439 1438 1437 1435 1434 1434 1433 1432 1431 1430 1429 1428 1427 1426 1425 1424 1423 1422 1421 1420 1419 1419 1418 1417 1416 1416 1415 1414 1414 1413 1413 1412 1412 1411 1411 1411 1410 1410 1410 1410 1410 1410 1410 1410 1411 1411 1411 1411 1411 1411 1412 1413 1414 1415 1416 1416 1417 1419 1419 1420 1421 1421 1422 1423 1424 1424 1425 1425 1425
1438 1436 1435 1434 1433 1432 1431 1430 1429 1428 1427 1426 1425 1424 1423 1422 1421 1420 1420 1419 1418 1417 1416 1415 1415 1414 1414 1413 1412 1412 1411 1411 1410 1410 1409 1409 1409 1409 1409 1409 1409 1409 1409 1409 1410 1410 1410 1410 1410 1411 1412 1413 1414 1414 1415 1416 1417 1418 1419 1419 1420 1420 1421 1422 1423 1424 1424 1424 1424
1436 1435 1433 1432 1431 1430 1429 1428 1427 1426 1425 1424 1424 1423 1422 1421 1420 1419 1418 1417 1416 1416 1415 1414 1413 1413 1412 1411 1411 1410 1410 1409 1409 1409 1408 1408 1408 1408 1407 1408 1408 1408 1408 1408 1409 1409 1409 1409 1410 1410 1411 1412 1413 1414 1414 1415 1415 1417 1418 1419 1419 1420 1421 1421 1423 1423 1424 1424 1424
1434 1433 1432 1430 1429 1428 1427 1427 1426 1425 1424 1423 1422 1421 1420 1419 1419 1418 1417 1416 1415 1414 1414 1413 1412 1411 1411 1410 1409 1409 1409 1408 1408 1407 1407 1407 1406 1406 1406 1406 1406 1406 1407 1407 1408 1408 1408 1408 1409 1409 1410 1411 1412 1413 1413 1414 1414 1415 1417 1418 1418 1419 1420 1421 1422 1423 1423 1423 1424
1433 1432 1430 1429 1428 1427 1426 1425 1424 1423 1422 1421 1420 1419 1419 1418 1417 1416 1415 1414 1414 1413 1412 1411 1411 1410 1409 1409 1408 1408 1407 1407 1406 1406 1406 1405 1405 1405 1405 1405 1405 1405 1406 1406 1407 1407 1407 1407 1408 1409 1409 1410 1411 1412 1413 1413 1414 1415 1416 1417 1418 1419 1419 1420 1421 1422 1423 1423 1424
1431 1430 1429 1428 1426 1425 1424 1423 1422 1421 1420 1419 1419 1418 1417 1416 1415 1415 1414 1413 1412 1411 1410 1410 1409 1408 1408 1407 1407 1406 1406 1405 1405 1405 1404 1404 1404 1404 1404 1404 1404 1404 1404 1405 1405 1406 1406 1406 1407 1408 1408 1409 1409 1411 1412 1412 1413 1414 1415 1416 1417 1418 1419 1419 1420 1421 1422 1423 1423
1430 1429 1427 1426 1425 1424 1422 1421 1420 1419 1419 1418 1417 1416 1415 1414 1414 1413 1412 1412 1411 1410 1409 1408 1408 1407 1406 1406 1405 1405 1404 1404 1404 1403 1403 1403 1403 1402 1402 1402 1402 1403 1403 1404 1404 1404 1405 1405 1406 1406 1407 1408 1409 1409 1410 1412 1413 1413 1414 1415 1416 1417 1418 1419 1419 1420 1421 1422 1423
1428 1427 1425 1424 1423 1422 1421 1419 1419 1418 1417 1416 1415 1414 1414 1413 1412 1411 1411 1410 1409 1408 1408 1407 1406 1405 1405 1404 1404 1403 1403 1403 1402 1402 1402 1401 1401 1401 1401 1401 1401 1401 1402 1402 1403 1403 1404 1404 1404 1405 1406 1407 1407 1408 1409 1410 1412 1412 1413 1414 1415 1416 1417 1418 1419 1420 1420 1421 1422
1427 1425 1424 1423 1421 1420 1419 1418 1417 1416 1415 1414 1413 1413 1412 1411 1410 1410 1409 1408 1407 1407 1406 1405 1404 1404 1404 1403 1402 1402 1402 1401 1401 1400 1400 1400 1400 1399 1399 1399 1399 1400 1400 1401 1401 1402 1402 1403 1403 1404 1405 1405 1406 1407 1408 1409 1410 1411 1412 1413 1414 1415 1416 1417 1418 1419 1419 1420 1421
1425 1424 1422 1421 1420 1419 1417 1416 1415 1414 1413 1412 1411 1411 1410 1409 1409 1408 1408 1407 1406 1405 1404 1404 1403 1402 1402 1401 1401 1400 1400 1400 1399 1399 1399 1399 1399 1398 1398 1398 1398 1399 1399 1399 1400 1400 1401 1401 1402 1403 1403 1404 1405 1406 1407 1409 1410 1411 1412 1413 1414 1414 1415 1416 1417 1418 1419 1419 1420
1424 1423 1421 1419 1418 1417 1416 1415 1414 1413 1411 1410 1410 1409 1408 1408 1407 1406 1406 1405 1404 1403 1402 1402 1401 1401 1400 1399 1399 1399 1399 1398 1398 1398 1397 1397 1397 1397 1397 1396 1396 1397 1398 1398 1399 1399 1400 1400 1401 1401 1402 1403 1404 1405 1406 1408 1409 1410 1411 1412 1413 1414 1415 1415 1416 1417 1418 1419 1419
1423 1421 1420 1418 1417 1416 1414 1413 1412 1411 1410 1409 1408 1407 1407 1406 1405 1405 1404 1404 1403 1401 1401 1400 1399 1399 1399 1398 1397 1397 1397 1397 1397 1396 1396 1395 1395 1395 1395 1395 1395 1395 1396 1397 1397 1398 1398 1399 1399 1400 1401 1402 1403 1404 1405 1407 1408 1409 1410 1411 1412 1413 1414 1414 1415 1416 1417 1418 1419
1421 1420 1419 1417 1416 1414 1413 1412 1410 1409 1408 1407 1406 1405 1405 1404 1404 1403 1402 1402 1401 1400 1399 1398 1398 1397 1397 1396 1396 1395 1395 1395 1395 1395 1394 1394 1394 1394 1394 1394 1394 1394 1394 1395 1396 1396 1397 1398 1398 1399 1399 1400 1402 1403 1404 1406 1407 1408 1409 1410 1411 1412 1413 1414 1414 1415 1416 1417 1418
1420 1419 1417 1416 1414 1413 1412 1410 1409 1408 1407 1406 1405 1404 1403 1402 1402 1401 1401 1400 1399 1399 1398 1397 1396 1396 1395 1395 1394 1394 1393 1393 1393 1393 1393 1393 1393 1392 1392 1392 1392 1392 1393 1394 1394 1395 1396 1396 1397 1398 1399 1399 1400 1402 1403 1405 1406 1407 1408 1409 1410 1411 1412 1413 1414 1414 1415 1416 1417